Helicity
108 91 77 120 170 164 104 90 98 119 91 52 94 222 219 167 152 131 103 61 89 129 236 415 359 259 247 222 161 281 413 186 377 306 229 207 212 178 207 198 155 187 173 125
49 45 21 49 68 114 115 123 88 88 34 -7 215 206 130 117 33 42 49 113 119 118 241 304 365 307 170 151 159 158 390 370 144 349 266 231 285 250 217 217 216 232 217 176
58 17 -4 19 52 67 78 75 38 7 12 -25 136 123 47 52 49 46 42 57 139 178 176 165 217 245 182 89 121 213 177 330 299 141 216 237 239 226 208 213 198 236 218 230
30 7 8 24 47 18 21 30 9 -23 4 36 62 61 80 30 54 37 62 71 50 117 168 116 166 229 208 108 116 123 175 260 363 302 148 250 254 207 230 171 207 192 227 227
34 51 57 68 11 16 -2 1 -15 -36 -27 49 28 116 51 5 20 33 31 37 38 59 102 119 117 191 171 101 57 90 68 205 375 333 270 232 168 189 160 200 195 217 191 221
51 35 31 5 -11 21 7 -5 -31 -16 -5 40 67 99 47 55 30 2 22 5 5 -0 13 156 211 229 328 256 127 61 13 89 233 345 431 373 287 260 154 150 133 171 194 242
12 29 17 22 28 16 24 51 48 31 35 45 116 117 88 36 -17 -21 15 46 32 40 -0 -2 97 207 308 428 408 187 37 28 98 263 326 417 364 419 297 262 190 204 261 217
66 49 30 14 38 22 20 30 42 48 73 73 163 134 85 39 31 17 -0 29 26 -7 -96 -141 -52 58 145 256 453 469 217 160 34 123 264 364 345 329 366 317 246 50 71 385
87 56 42 35 21 20 12 24 16 38 39 77 124 94 83 -8 59 71 26 -30 28 52 -53 -59 -195 -183 -37 113 193 367 385 256 134 68 156 278 358 286 325 260 311 295 318 -29
107 77 22 39 12 25 45 20 29 22 60 63 118 131 128 38 26 74 83 48 -11 62 36 -10 -69 -104 -92 -130 -118 23 209 209 193 174 176 181 241 273 255 247 217 241 315 455
108 84 58 45 38 69 35 42 32 36 49 58 91 103 97 58 35 5 -12 11 34 81 72 38 7 -16 -35 -48 -120 -78 -15 90 164 146 124 53 142 206 119 152 151 145 118 307
97 87 74 69 69 68 59 58 53 55 17 50 77 65 66 74 56 38 81 57 29 73 53 47 44 24 7 6 -46 -82 -60 -18 13 -6 95 84 -2 24 119 177 136 67 20 -79
61 82 120 64 50 43 35 40 64 61 52 36 78 47 15 39 90 87 88 50 62 81 53 41 68 49 17 27 5 -53 -56 -41 -5 42 -22 -5 29 50 47 70 5 -14 15 5
105 73 80 71 48 57 53 77 67 70 66 46 46 78 86 138 171 114 84 84 74 91 66 46 67 78 56 14 4 8 -34 -43 -7 -15 2 -22 -37 -21 17 72 51 86 41 66
106 64 70 93 107 72 64 53 71 133 60 69 49 65 190 251 191 161 133 117 88 89 107 121 101 70 75 67 56 36 -14 -13 -1 -24 -22 -31 -41 -22 -5 22 67 36 52 -1
128 96 112 89 64 46 47 40 35 61 90 91 35 125 187 170 155 190 152 129 101 67 61 63 64 72 61 58 68 75 49 8 17 20 14 3 -8 -3 22 30 -15 -0 52 35
130 138 130 93 90 87 32 89 86 57 28 65 104 117 169 210 220 169 200 173 147 97 69 56 49 37 47 67 50 40 35 42 40 13 5 -1 5 18 12 -16 -17 23 31 35
146 154 152 128 164 97 51 44 72 74 48 54 152 191 238 230 217 245 222 170 131 100 84 80 50 51 87 48 18 21 43 35 47 24 16 18 18 14 -7 -20 -24 -25 -17 22
145 174 150 139 121 64 37 47 89 136 24 86 75 210 215 182 219 231 196 115 102 83 90 66 55 69 56 15 34 45 41 27 18 41 41 34 32 32 16 -11 -52 -70 -44 -22
144 138 155 154 130 74 71 77 75 105 65 90 188 223 242 235 193 216 188 130 93 77 68 64 54 74 80 68 49 50 59 66 64 56 53 56 55 46 37 20 -4 -53 -74 -31
211 222 179 162 125 80 56 113 197 173 49 78 184 260 288 242 171 210 170 133 94 78 69 67 63 72 83 89 97 93 82 74 77 70 74 85 73 53 45 30 -11 -15 -12 1
257 244 230 179 156 50 66 239 174 72 128 139 276 304 309 278 232 182 174 150 126 109 96 82 76 74 104 126 130 118 102 91 79 73 66 77 73 82 54 18 7 8 2 2
195 221 237 166 98 88 131 139 167 140 185 237 295 287 282 252 197 185 157 142 127 125 115 94 95 98 118 139 140 117 99 96 94 86 83 76 78 87 63 50 40 32 20 10
162 155 149 165 65 32 117 189 207 175 164 197 232 201 196 165 177 193 161 153 143 128 124 105 96 94 101 116 108 111 92 86 86 93 79 80 82 78 66 63 49 22 12 12
180 166 126 129 93 96 103 176 181 177 170 182 190 155 173 193 193 186 187 168 150 138 119 101 95 84 80 82 71 76 78 87 101 100 86 85 92 84 74 75 56 16 24 10
201 200 211 147 127 115 92 114 147 195 197 205 226 204 215 245 216 215 195 165 148 117 94 86 87 83 64 51 41 56 68 93 107 104 107 110 106 95 84 80 36 13 -21 -22
Wind_Speed
23 18 24 25 25 27 28 31 37 37 43 47 44 41 49 53 57 62 66 70 70 68 68 68 66 64 63 61 62 62 60 77 60 58 54 56 58 55 56 48 42 37 35 33
22 25 27 31 30 31 38 31 37 41 46 42 31 42 48 56 58 62 67 71 73 73 70 69 69 67 63 61 60 61 62 66 82 64 63 58 58 60 62 60 54 46 42 40
19 24 28 29 31 34 30 26 34 38 43 39 25 47 52 56 60 62 64 66 69 69 68 66 66 65 64 61 60 62 62 63 66 83 70 66 61 62 66 71 64 58 50 48
24 25 29 27 32 33 26 31 37 38 39 38 40 52 54 58 63 65 69 71 67 67 63 64 66 67 64 60 58 59 59 61 61 69 81 73 68 68 66 69 71 68 62 58
25 26 29 29 32 33 32 38 33 33 35 43 51 47 46 55 66 70 66 66 64 65 62 62 63 64 63 60 58 58 57 57 58 56 59 63 81 77 70 70 70 70 70 70
21 25 30 31 39 30 39 45 36 25 25 41 44 45 51 58 64 65 61 61 62 66 65 61 61 62 63 62 61 57 56 54 55 54 52 57 61 65 78 77 78 78 80 73
19 21 28 36 31 33 44 39 38 35 36 42 36 45 40 41 48 55 55 52 56 62 64 62 62 63 63 64 60 55 56 54 53 53 52 52 54 54 58 64 75 65 72 75
19 24 23 31 33 35 37 39 33 35 38 41 40 44 35 26 35 44 48 41 42 54 57 58 58 58 59 59 57 53 53 52 52 51 52 52 51 52 54 61 66 67 72 47
21 24 24 28 31 35 33 36 32 32 32 34 35 34 26 21 26 35 42 45 43 42 56 62 56 59 53 55 58 55 53 51 51 50 50 52 53 53 55 56 60 63 65 71
25 22 19 26 26 31 31 33 31 34 35 38 37 38 34 26 25 26 27 32 26 27 41 48 54 57 57 54 56 50 51 51 52 52 51 51 52 53 55 58 60 61 60 65
21 24 20 23 25 24 25 31 33 31 32 34 35 33 28 28 23 19 18 24 22 22 29 34 39 42 50 57 58 58 55 53 55 54 55 55 56 56 57 61 64 66 61 65
24 23 19 20 25 25 25 26 28 29 29 31 32 28 27 27 27 28 28 26 29 27 28 28 30 35 40 50 56 59 58 58 57 58 57 59 60 61 61 63 66 67 69 69
15 20 18 23 25 19 19 20 25 27 29 27 30 29 23 27 30 35 39 38 47 52 50 45 31 35 36 45 50 54 62 63 62 60 59 59 61 64 65 67 67 68 73 75
25 25 22 17 24 20 19 16 17 20 24 25 21 26 22 25 32 34 39 44 47 50 50 49 54 55 56 60 63 60 67 69 67 62 61 60 62 65 68 72 72 73 73 75
28 27 28 28 28 22 18 12 12 11 15 22 26 24 20 24 28 31 37 41 45 48 51 52 56 58 60 64 62 65 70 70 68 65 58 63 64 68 70 73 73 74 77 77
31 33 31 33 30 26 13 4 7 7 9 11 11 26 23 24 26 33 35 37 43 47 50 53 55 57 60 63 62 66 70 71 70 66 66 68 71 72 72 73 73 77 79 79
25 31 31 32 26 28 30 18 15 11 12 8 9 13 19 22 27 29 32 35 41 48 51 54 56 61 61 62 64 69 71 70 69 69 71 73 73 73 74 74 76 79 79 80
25 28 31 32 31 34 28 22 11 15 10 13 16 18 19 23 28 31 32 33 39 44 48 51 56 58 56 61 67 68 66 68 68 72 75 75 75 75 75 76 77 78 79 81
20 27 32 31 30 50 43 13 11 10 11 13 13 12 15 20 26 29 30 33 36 39 43 50 51 50 56 63 64 64 66 67 71 73 75 74 75 76 77 79 78 77 82 82
25 22 33 31 35 33 33 18 13 12 7 8 9 10 10 14 13 19 26 31 34 37 42 48 49 47 53 54 60 61 64 67 69 71 75 74 75 74 77 77 77 79 83 80
36 36 32 33 40 47 46 11 12 12 23 8 13 10 10 11 14 17 23 29 32 36 40 45 47 50 48 52 56 60 64 66 64 66 65 67 70 75 70 74 80 85 84 83
39 37 40 36 39 53 22 1 6 18 24 12 14 14 13 16 18 18 23 27 30 35 40 44 49 51 50 55 59 62 63 61 60 63 65 64 70 69 71 77 81 82 81 83
47 38 36 31 37 34 27 16 12 13 14 17 15 15 14 14 15 16 21 24 30 35 40 46 50 52 55 59 61 63 60 59 60 64 66 68 67 67 71 74 79 81 82 83
51 34 44 36 42 40 39 6 3 10 10 11 13 12 12 12 14 16 19 23 29 36 41 45 49 53 57 62 61 59 59 60 62 66 70 69 71 72 70 72 74 80 83 84
49 36 45 46 44 25 28 9 5 3 6 6 8 10 10 12 13 16 18 22 28 34 40 44 48 51 55 59 58 58 60 60 64 66 69 70 70 72 70 69 76 83 80 81
48 45 41 48 37 31 23 13 7 6 4 2 6 11 10 11 13 16 18 21 26 33 36 39 43 46 51 56 55 58 59 60 65 68 70 69 71 69 67 73 86 80 84 86
Wind_Direction
346 356 333 321 318 307 301 302 303 319 328 326 324 331 329 334 329 321 319 317 314 313 313 311 311 310 310 307 305 307 294 260 246 247 248 249 250 249 255 251 244 240 234 228
350 355 335 310 340 314 293 308 312 312 321 322 336 330 334 332 333 330 320 316 314 312 312 311 310 309 310 309 304 305 304 283 253 247 248 252 250 252 249 253 252 246 241 237
347 345 328 325 343 315 334 337 334 327 327 328 348 328 331 337 338 338 335 327 321 315 309 312 313 310 309 308 307 303 304 300 276 253 251 253 255 255 253 250 252 253 246 243
345 352 331 351 343 332 343 344 334 332 333 331 339 318 331 335 336 335 333 332 325 319 315 312 312 312 311 308 308 308 308 306 298 274 260 252 253 255 256 254 253 253 255 250
330 352 334 344 341 340 335 335 346 346 341 337 334 331 337 341 332 330 331 332 333 327 321 315 315 313 312 312 308 309 309 311 311 299 276 271 262 260 262 258 256 254 255 254
11 20 349 344 311 11 347 327 340 1 359 343 346 341 341 345 342 338 331 330 337 336 329 319 321 320 316 315 308 308 311 311 314 312 298 282 279 276 266 265 266 265 259 255
11 5 6 338 5 5 349 349 350 355 355 349 11 357 360 11 8 0 350 342 351 352 340 332 326 318 322 318 314 306 308 309 312 310 307 300 291 287 280 280 274 278 274 261
332 332 4 4 2 1 6 10 9 355 357 0 15 4 18 45 26 19 15 15 17 9 353 343 339 333 331 325 316 316 307 308 308 312 308 307 305 299 293 287 285 284 296 279
319 335 4 7 3 5 8 6 16 14 15 13 23 33 53 59 32 27 16 2 33 39 356 6 356 353 336 336 326 318 313 308 310 309 312 310 307 304 298 297 297 297 294 284
312 334 13 13 34 24 28 20 19 14 12 8 21 28 33 54 47 46 46 29 41 47 36 33 20 16 22 356 348 330 321 314 310 310 311 311 310 309 303 304 302 304 306 299
313 330 357 15 18 27 40 18 20 24 25 20 21 33 68 64 69 70 70 49 57 65 51 49 45 45 30 21 357 348 335 320 314 310 310 308 309 309 309 306 306 305 306 305
302 330 357 11 19 26 32 30 33 20 25 27 31 39 75 79 89 88 78 69 52 57 51 50 48 42 39 29 24 353 347 339 323 316 311 311 308 310 308 308 307 306 309 307
307 321 342 350 2 37 36 51 41 45 36 34 31 36 99 90 88 76 68 65 54 37 32 26 42 27 29 22 21 11 357 336 330 326 320 314 313 308 307 307 305 310 309 309
294 299 325 350 358 33 27 70 74 58 31 37 42 44 87 87 65 63 58 51 50 42 43 45 28 19 6 355 357 359 345 343 330 333 337 330 321 316 311 307 305 307 308 307
289 295 302 317 337 1 18 50 101 78 89 38 40 40 91 68 54 56 44 40 36 38 38 38 29 26 20 10 5 357 347 343 340 337 344 334 333 328 320 313 309 308 306 305
282 287 300 306 317 338 5 108 150 143 130 143 116 24 63 61 58 34 29 31 28 26 25 24 23 20 19 15 14 8 360 352 348 347 341 335 334 329 325 320 317 313 310 308
276 284 295 306 325 331 331 199 185 170 163 93 86 69 70 44 30 25 27 26 17 11 11 9 10 7 9 12 12 6 1 358 354 353 348 341 334 329 327 323 321 317 314 311
270 279 290 300 311 313 337 9 125 165 146 143 57 83 60 43 34 32 34 27 17 13 11 9 6 8 14 10 5 5 10 7 4 356 352 346 340 333 327 326 322 319 317 314
263 274 287 295 298 299 307 349 26 117 162 149 144 85 58 49 40 25 29 27 23 21 18 11 11 16 12 6 8 9 9 8 2 360 356 353 348 341 334 327 322 321 319 316
259 268 279 292 298 306 317 356 39 61 9 124 123 108 79 54 31 28 27 24 23 22 20 15 15 18 14 15 12 10 8 6 4 360 356 354 350 347 340 335 329 325 321 317
250 262 265 281 291 296 287 355 26 356 2 103 133 109 79 30 26 45 32 26 25 24 21 18 15 13 15 11 10 8 5 3 3 0 358 356 353 348 347 340 332 327 322 319
250 254 266 275 286 288 291 299 303 347 357 49 99 89 57 59 52 44 30 23 23 18 15 14 11 10 12 7 4 3 2 2 1 359 357 356 353 352 347 339 333 328 325 321
256 259 268 267 285 301 305 297 338 13 31 40 65 67 64 49 34 30 24 21 16 13 10 8 6 5 5 2 1 359 1 1 0 358 357 354 353 352 348 342 333 327 323 320
260 252 271 276 280 283 292 234 325 2 21 33 33 43 54 49 47 32 25 19 12 8 7 6 6 5 2 1 0 1 0 359 358 356 354 353 351 349 347 342 335 326 321 318
258 247 261 272 284 284 287 273 225 326 21 38 47 23 51 51 43 29 25 18 11 8 5 6 5 4 4 3 3 2 360 359 357 355 353 352 350 349 346 343 333 322 322 318
251 258 253 272 273 281 282 267 258 220 214 34 52 22 40 39 31 28 23 17 10 5 7 7 6 5 4 4 3 2 0 359 356 353 353 352 350 350 348 342 327 326 318 312